Torna al catalogo

BLOCK DM-SL R/B

AttivoGEO
NORAD 44904·ROCKET BODY·🇷🇺 Russia

Lanciato Dec 24, 2019 da Baikonur Cosmodrome

Loading…

TLE

AggiornatoSource: Space-Track

Epoca: Sep 14, 2026, 15:58 UTC

1 44904U 19095B   26257.66532575 -.00000057  00000-0  00000-0 0  9999
2 44904   5.5467  72.2850 0069608 278.2469  81.1824  1.02970869 25318

Traccia BLOCK DM-SL R/B in tempo reale con AllMySat

Download on the App Store